When you browse on this site, cookies collect data to enhance your experience and personalize the content and advertising you see.
Visit our Privacy Policy to learn more. By continuing to use the site, you agree to this use of cookies and data.
  • In United Kingdom
  • List of Countries
  • For 7 days
  • Water Temperature
  • Weather Map
  • Weather Widgets
  • user-avatar
    Login

    Hourly Weather Gülnar

    Today, 7 December, Saturday

    Time Temperature Precipitation Wind Pressure Humidity
    00:00 0°C° 0 mm 4 mps 680 mmHg 66%
    01:00 0°C° 0 mm 4 mps 680 mmHg 67%
    02:00 0°C° 0 mm 4 mps 679 mmHg 68%
    03:00 +1°C° 0 mm 3 mps 679 mmHg 68%
    04:00 0°C° 0 mm 3 mps 679 mmHg 68%
    05:00 0°C° 0 mm 3 mps 679 mmHg 68%
    06:00 +1°C° 0 mm 3 mps 679 mmHg 65%
    07:00 +3°C° 0 mm 2 mps 679 mmHg 62%
    08:00 +4°C° 0 mm 2 mps 679 mmHg 59%
    09:00 +5°C° 0 mm 2 mps 679 mmHg 54%
    10:00 +8°C° 0 mm 1 mps 680 mmHg 49%
    11:00 +9°C° 0 mm 1 mps 680 mmHg 44%
    12:00 +9°C° 0 mm 1 mps 679 mmHg 46%
    13:00 +9°C° 0 mm 2 mps 679 mmHg 47%
    14:00 +9°C° 0 mm 2 mps 678 mmHg 49%
    15:00 +8°C° 0 mm 2 mps 678 mmHg 58%
    16:00 +6°C° 0 mm 2 mps 678 mmHg 67%
    17:00 +6°C° 0 mm 1 mps 677 mmHg 76%
    18:00 +6°C° 0 mm 1 mps 677 mmHg 77%
    19:00 +5°C° 0 mm 1 mps 677 mmHg 78%
    20:00 +5°C° 0 mm 1 mps 677 mmHg 79%
    21:00 +5°C° 0 mm 1 mps 677 mmHg 79%
    22:00 +5°C° 0 mm 1 mps 677 mmHg 78%
    23:00 +5°C° 0 mm 1 mps 677 mmHg 78%

    Tomorrow, 8 December, Sunday

    Time Temperature Precipitation Wind Pressure Humidity
    00:00 +4°C° 0 mm 1 mps 676 mmHg 79%
    01:00 +4°C° 0 mm 1 mps 676 mmHg 79%
    02:00 +4°C° 0 mm 1 mps 676 mmHg 79%
    03:00 +3°C° 0 mm 1 mps 676 mmHg 79%
    04:00 +3°C° 0 mm 1 mps 675 mmHg 78%
    05:00 +3°C° 0 mm 1 mps 675 mmHg 77%
    06:00 +4°C° 0 mm 1 mps 676 mmHg 72%
    07:00 +5°C° 0 mm 1 mps 676 mmHg 67%
    08:00 +6°C° 0 mm 1 mps 676 mmHg 61%
    09:00 +8°C° 0 mm 1 mps 676 mmHg 55%
    10:00 +9°C° 0 mm 1 mps 676 mmHg 48%
    11:00 +11°C° 0 mm 1 mps 677 mmHg 41%
    12:00 +11°C° 0 mm 1 mps 676 mmHg 42%
    13:00 +10°C° 0 mm 2 mps 676 mmHg 44%
    14:00 +12°C° 0 mm 2 mps 676 mmHg 45%
    15:00 +10°C° 0 mm 1 mps 676 mmHg 52%
    16:00 +9°C° 0 mm 1 mps 675 mmHg 58%
    17:00 +7°C° 0 mm 1 mps 675 mmHg 65%
    18:00 +7°C° 0 mm 1 mps 675 mmHg 60%
    19:00 +5°C° 0 mm 2 mps 676 mmHg 54%
    20:00 +5°C° 0 mm 2 mps 676 mmHg 49%
    21:00 +5°C° 0 mm 2 mps 676 mmHg 49%
    22:00 +4°C° 0 mm 3 mps 676 mmHg 50%
    23:00 +4°C° 0 mm 3 mps 676 mmHg 50%

    Day after tomorrow, 9 December, Monday

    Time Temperature Precipitation Wind Pressure Humidity
    00:00 +3°C° 0 mm 3 mps 676 mmHg 52%
    01:00 +3°C° 0 mm 3 mps 675 mmHg 54%
    02:00 +3°C° 0 mm 4 mps 675 mmHg 56%
    03:00 +3°C° 0 mm 4 mps 675 mmHg 59%
    04:00 +3°C° 0 mm 4 mps 675 mmHg 63%
    05:00 +1°C° 0 mm 4 mps 675 mmHg 67%
    06:00 +3°C° 0 mm 4 mps 675 mmHg 66%
    07:00 +3°C° 0 mm 4 mps 675 mmHg 66%
    08:00 +4°C° 0 mm 4 mps 676 mmHg 65%
    09:00 +5°C° 0 mm 4 mps 676 mmHg 59%
    10:00 +6°C° 0 mm 4 mps 676 mmHg 53%
    11:00 +8°C° 0 mm 3 mps 677 mmHg 48%
    12:00 +9°C° 0 mm 3 mps 676 mmHg 47%
    13:00 +9°C° 0 mm 3 mps 676 mmHg 46%
    14:00 +9°C° 0 mm 3 mps 676 mmHg 45%
    15:00 +8°C° 0 mm 3 mps 676 mmHg 51%
    16:00 +7°C° 0 mm 3 mps 676 mmHg 56%
    17:00 +5°C° 0 mm 3 mps 676 mmHg 62%
    18:00 +4°C° 0 mm 3 mps 676 mmHg 63%
    19:00 +4°C° 0 mm 3 mps 676 mmHg 65%
    20:00 +3°C° 0 mm 3 mps 676 mmHg 66%
    21:00 +3°C° 0 mm 3 mps 676 mmHg 66%
    22:00 +2°C° 0 mm 3 mps 676 mmHg 67%
    23:00 +3°C° 0 mm 2 mps 676 mmHg 67%

    10 December, Tuesday

    Time Temperature Precipitation Wind Pressure Humidity
    00:00 +3°C° 0 mm 2 mps 676 mmHg 68%
    01:00 +3°C° 0 mm 2 mps 676 mmHg 68%
    02:00 +2°C° 0 mm 2 mps 676 mmHg 69%
    03:00 +2°C° 0 mm 2 mps 675 mmHg 70%
    04:00 +2°C° 0 mm 2 mps 675 mmHg 70%
    05:00 +2°C° 0 mm 2 mps 675 mmHg 71%
    06:00 +3°C° 0 mm 2 mps 676 mmHg 68%
    07:00 +4°C° 0 mm 2 mps 676 mmHg 65%
    08:00 +5°C° 0 mm 2 mps 676 mmHg 62%
    09:00 +6°C° 0 mm 2 mps 677 mmHg 59%
    10:00 +7°C° 0 mm 3 mps 677 mmHg 55%
    11:00 +9°C° 0 mm 3 mps 677 mmHg 51%
    12:00 +9°C° 0 mm 3 mps 677 mmHg 52%
    13:00 +9°C° 0 mm 3 mps 677 mmHg 54%
    14:00 +10°C° 0 mm 4 mps 676 mmHg 55%
    15:00 +8°C° 0 mm 3 mps 676 mmHg 62%
    16:00 +7°C° 0 mm 3 mps 676 mmHg 69%
    17:00 +5°C° 0 mm 3 mps 676 mmHg 76%
    18:00 +6°C° 0 mm 2 mps 676 mmHg 78%
    19:00 +5°C° 0 mm 2 mps 676 mmHg 79%
    20:00 +5°C° 0 mm 2 mps 677 mmHg 81%
    21:00 +5°C° 0.1 mm 2 mps 677 mmHg 81%
    22:00 +5°C° 0.1 mm 2 mps 677 mmHg 81%
    23:00 +5°C° 0.1 mm 2 mps 677 mmHg 81%

    11 December, Wednesday

    Time Temperature Precipitation Wind Pressure Humidity
    00:00 +5°C° 0.1 mm 2 mps 677 mmHg 80%
    01:00 +4°C° 0.1 mm 3 mps 677 mmHg 79%
    02:00 +5°C° 0.1 mm 3 mps 677 mmHg 78%
    03:00 +4°C° 0 mm 3 mps 677 mmHg 78%
    04:00 +4°C° 0 mm 3 mps 676 mmHg 79%
    05:00 +4°C° 0 mm 3 mps 676 mmHg 79%
    06:00 +4°C° 0 mm 3 mps 677 mmHg 77%
    07:00 +5°C° 0 mm 3 mps 677 mmHg 75%
    08:00 +5°C° 0 mm 3 mps 677 mmHg 73%
    09:00 +7°C° 0 mm 3 mps 677 mmHg 71%
    10:00 +7°C° 0 mm 3 mps 677 mmHg 69%
    11:00 +7°C° 0 mm 3 mps 677 mmHg 67%
    12:00 +8°C° 0 mm 3 mps 677 mmHg 65%
    13:00 +8°C° 0 mm 3 mps 677 mmHg 63%
    14:00 +9°C° 0 mm 3 mps 676 mmHg 62%
    15:00 +8°C° 0 mm 3 mps 676 mmHg 65%
    16:00 +8°C° 0 mm 3 mps 676 mmHg 68%
    17:00 +7°C° 0 mm 3 mps 676 mmHg 71%
    18:00 +7°C° 0.1 mm 3 mps 676 mmHg 71%
    19:00 +7°C° 0.1 mm 3 mps 676 mmHg 71%
    20:00 +7°C° 0.1 mm 3 mps 676 mmHg 71%
    21:00 +7°C° 0 mm 3 mps 676 mmHg 70%
    22:00 +7°C° 0 mm 3 mps 675 mmHg 69%
    23:00 +6°C° 0 mm 4 mps 675 mmHg 68%

    12 December, Thursday

    Time Temperature Precipitation Wind Pressure Humidity
    00:00 +6°C° 0 mm 4 mps 675 mmHg 68%
    01:00 +6°C° 0 mm 4 mps 674 mmHg 68%
    02:00 +5°C° 0 mm 4 mps 674 mmHg 68%
    03:00 +5°C° 0 mm 4 mps 674 mmHg 68%
    04:00 +5°C° 0 mm 4 mps 673 mmHg 68%
    05:00 +5°C° 0 mm 4 mps 673 mmHg 68%
    06:00 +5°C° 0 mm 4 mps 673 mmHg 68%
    07:00 +6°C° 0 mm 4 mps 673 mmHg 68%
    08:00 +6°C° 0 mm 5 mps 673 mmHg 67%
    09:00 +7°C° 0 mm 4 mps 674 mmHg 64%
    10:00 +7°C° 0 mm 4 mps 674 mmHg 61%
    11:00 +8°C° 0 mm 4 mps 674 mmHg 58%
    12:00 +10°C° 0 mm 4 mps 674 mmHg 56%
    13:00 +10°C° 0 mm 4 mps 673 mmHg 54%
    14:00 +11°C° 0 mm 4 mps 673 mmHg 53%
    15:00 +8°C° 0 mm 4 mps 673 mmHg 57%
    16:00 +7°C° 0 mm 4 mps 673 mmHg 62%
    17:00 +7°C° 0 mm 3 mps 673 mmHg 67%
    18:00 +7°C° 0 mm 3 mps 673 mmHg 68%
    19:00 +5°C° 0 mm 3 mps 673 mmHg 68%
    20:00 +5°C° 0 mm 3 mps 673 mmHg 69%
    21:00 +5°C° 0 mm 3 mps 673 mmHg 70%
    22:00 +5°C° 0 mm 2 mps 673 mmHg 71%
    23:00 +5°C° 0 mm 2 mps 674 mmHg 72%
    Show more